Location: ???????
(55.3754°N, 39.3545°E)
Time: 20:36:46
(UTC+00:00)

USA 234 - Pass Details

Date: 14 April 2026
Orbit: 1102 x 1106 km, 123.0° (Epoch: 4 January)

Event Time Altitude Azimuth Distance (km) Brightness Sun altitude
Rises 20:37:30 0° 89° (E) 3,921 6.0 -24.3°
Reaches altitude 10° 20:39:58 10° 88° (E) 2,964 5.4 -24.4°
Maximum altitude 20:46:31 79° 4° (N) 1,129 3.3 -24.5°
Drops below altitude 10° 20:53:04 10° 279° (W) 2,968 5.7 -24.7°
Sets 20:55:33 0° 278° (W) 3,927 6.4 -24.7°
